QPF
0.00 0.00 0.02 0.06 0.18 0.20 0.16 0.08 0.06 0.07 0.07 0.06 0.03 0.02 0.04 0.05 0.07 0.15 0.14 0.05 0.02 0.00 0.00 0.00 0.01 0.00 0.00 0.00 0.01 0.01 0.00 0.00 0.00 0.00 0.00 0.00 0.00 0.00 0.00 0.00 0.00 0.01 0.01 0.00 0.00 0.00 0.00 0.01 0.01
0.00 0.00 0.03 0.10 0.19 0.19 0.08 0.03 0.03 0.03 0.03 0.03 0.03 0.04 0.03 0.04 0.06 0.05 0.06 0.06 0.02 0.00 0.00 0.00 0.01 0.00 0.00 0.00 0.00 0.00 0.00 0.00 0.00 0.00 0.00 0.00 0.00 0.01 0.00 0.00 0.00 0.00 0.00 0.00 0.01 0.00 0.00 0.00 0.01
0.00 0.01 0.04 0.09 0.12 0.09 0.02 0.02 0.01 0.02 0.03 0.06 0.10 0.08 0.04 0.08 0.08 0.03 0.04 0.03 0.02 0.01 0.00 0.00 0.00 0.00 0.00 0.00 0.00 0.00 0.00 0.00 0.00 0.00 0.00 0.00 0.01 0.01 0.00 0.00 0.00 0.00 0.00 0.01 0.00 0.00 0.00 0.01 0.01
0.00 0.02 0.04 0.06 0.04 0.01 0.01 0.01 0.01 0.03 0.07 0.11 0.15 0.12 0.06 0.05 0.03 0.03 0.04 0.04 0.02 0.01 0.00 0.00 0.00 0.00 0.00 0.00 0.00 0.00 0.00 0.00 0.00 0.00 0.00 0.01 0.00 0.00 0.00 0.00 0.00 0.00 0.00 0.00 0.00 0.00 0.00 0.01 0.01
0.00 0.01 0.03 0.03 0.02 0.00 0.00 0.00 0.01 0.02 0.05 0.09 0.15 0.14 0.11 0.04 0.04 0.05 0.04 0.03 0.01 0.00 0.00 0.00 0.00 0.00 0.00 0.00 0.00 0.00 0.00 0.00 0.00 0.00 0.00 0.00 0.00 0.00 0.00 0.00 0.00 0.00 0.00 0.00 0.00 0.00 0.00 0.01 0.01
0.00 0.01 0.01 0.01 0.00 0.00 0.00 0.00 0.00 0.01 0.03 0.07 0.13 0.13 0.11 0.07 0.05 0.05 0.04 0.04 0.04 0.01 0.00 0.00 0.00 0.00 0.00 0.00 0.00 0.00 0.00 0.00 0.00 0.00 0.00 0.00 0.00 0.00 0.00 0.00 0.00 0.00 0.00 0.00 0.00 0.00 0.00 0.00 0.01
0.00 0.00 0.00 0.00 0.00 0.00 0.00 0.00 0.00 0.01 0.03 0.14 0.12 0.10 0.12 0.11 0.07 0.06 0.07 0.06 0.12 0.07 0.01 0.00 0.00 0.00 0.01 0.01 0.01 0.01 0.00 0.00 0.00 0.00 0.00 0.00 0.00 0.00 0.00 0.00 0.00 0.00 0.00 0.00 0.00 0.00 0.00 0.01 0.01
0.00 0.00 0.00 0.00 0.00 0.00 0.00 0.00 0.00 0.01 0.02 0.08 0.08 0.09 0.12 0.10 0.10 0.10 0.11 0.11 0.16 0.10 0.03 0.01 0.00 0.00 0.00 0.01 0.01 0.01 0.00 0.00 0.00 0.00 0.00 0.00 0.00 0.00 0.01 0.00 0.00 0.00 0.00 0.00 0.00 0.00 0.00 0.01 0.01
0.00 0.00 0.00 0.00 0.00 0.00 0.00 0.00 0.00 0.00 0.01 0.03 0.03 0.03 0.05 0.09 0.09 0.12 0.17 0.17 0.15 0.10 0.05 0.04 0.02 0.01 0.00 0.00 0.01 0.01 0.00 0.00 0.00 0.00 0.00 0.00 0.01 0.01 0.01 0.02 0.02 0.01 0.00 0.00 0.00 0.00 0.00 0.01 0.02
0.00 0.00 0.00 0.00 0.00 0.00 0.00 0.00 0.00 0.00 0.01 0.03 0.04 0.06 0.08 0.11 0.11 0.13 0.17 0.18 0.21 0.24 0.11 0.08 0.05 0.03 0.01 0.01 0.01 0.01 0.01 0.00 0.00 0.01 0.01 0.01 0.02 0.02 0.03 0.05 0.04 0.02 0.01 0.01 0.01 0.01 0.01 0.01 0.02
0.00 0.00 0.00 0.00 0.00 0.00 0.00 0.00 0.00 0.01 0.03 0.06 0.13 0.15 0.15 0.13 0.12 0.10 0.12 0.16 0.19 0.27 0.18 0.12 0.09 0.07 0.05 0.04 0.01 0.01 0.01 0.01 0.01 0.01 0.01 0.01 0.02 0.02 0.02 0.02 0.03 0.02 0.01 0.01 0.02 0.02 0.02 0.03 0.04
0.00 0.00 0.00 0.00 0.00 0.00 0.00 0.00 0.00 0.01 0.02 0.05 0.08 0.08 0.10 0.15 0.11 0.12 0.16 0.18 0.20 0.27 0.33 0.28 0.18 0.13 0.12 0.07 0.03 0.01 0.01 0.01 0.01 0.01 0.01 0.01 0.01 0.01 0.01 0.01 0.01 0.01 0.00 0.01 0.01 0.01 0.01 0.04 0.05
0.00 0.00 0.00 0.00 0.00 0.00 0.00 0.00 0.01 0.01 0.02 0.02 0.03 0.03 0.07 0.10 0.10 0.15 0.22 0.23 0.27 0.30 0.36 0.54 0.36 0.20 0.15 0.08 0.03 0.02 0.02 0.01 0.01 0.01 0.01 0.01 0.01 0.01 0.00 0.01 0.01 0.00 0.00 0.01 0.01 0.01 0.01 0.03 0.04
0.00 0.00 0.00 0.00 0.00 0.00 0.00 0.00 0.01 0.03 0.02 0.02 0.02 0.04 0.07 0.10 0.15 0.19 0.29 0.34 0.38 0.41 0.36 0.50 0.47 0.25 0.13 0.10 0.05 0.03 0.02 0.02 0.01 0.02 0.01 0.00 0.00 0.00 0.00 0.00 0.00 0.01 0.00 0.00 0.00 0.01 0.01 0.02 0.03
0.00 0.00 0.01 0.01 0.01 0.01 0.01 0.02 0.02 0.02 0.02 0.03 0.03 0.05 0.10 0.17 0.20 0.23 0.26 0.36 0.37 0.37 0.35 0.36 0.41 0.27 0.16 0.10 0.07 0.03 0.04 0.02 0.01 0.01 0.01 0.00 0.00 0.00 0.00 0.00 0.00 0.00 0.00 0.00 0.01 0.01 0.01 0.01 0.01
0.00 0.00 0.01 0.01 0.01 0.01 0.01 0.02 0.01 0.02 0.02 0.03 0.04 0.06 0.14 0.24 0.25 0.26 0.30 0.39 0.41 0.37 0.43 0.34 0.27 0.23 0.16 0.10 0.07 0.06 0.06 0.03 0.01 0.01 0.00 0.00 0.00 0.00 0.00 0.00 0.00 0.00 0.00 0.00 0.01 0.01 0.00 0.00 0.01
0.00 0.00 0.01 0.01 0.02 0.02 0.02 0.01 0.01 0.02 0.02 0.03 0.05 0.06 0.10 0.20 0.26 0.33 0.44 0.46 0.42 0.41 0.48 0.42 0.28 0.19 0.15 0.11 0.09 0.08 0.05 0.02 0.01 0.01 0.00 0.00 0.00 0.00 0.00 0.00 0.00 0.00 0.00 0.00 0.00 0.00 0.00 0.00 0.01
0.00 0.00 0.00 0.01 0.01 0.01 0.02 0.01 0.01 0.02 0.03 0.03 0.04 0.05 0.08 0.14 0.22 0.37 0.50 0.47 0.43 0.43 0.40 0.33 0.28 0.20 0.15 0.10 0.09 0.07 0.04 0.02 0.01 0.01 0.00 0.00 0.00 0.00 0.00 0.00 0.00 0.00 0.00 0.00 0.00 0.00 0.00 0.00 0.00
0.00 0.00 0.00 0.01 0.01 0.01 0.01 0.02 0.02 0.03 0.03 0.02 0.02 0.02 0.05 0.09 0.17 0.33 0.49 0.36 0.37 0.39 0.42 0.36 0.30 0.21 0.13 0.07 0.04 0.03 0.02 0.01 0.01 0.01 0.00 0.00 0.00 0.00 0.00 0.00 0.00 0.00 0.00 0.00 0.00 0.00 0.00 0.00 0.00
0.00 0.00 0.00 0.00 0.01 0.01 0.02 0.02 0.03 0.03 0.04 0.02 0.01 0.01 0.02 0.06 0.15 0.35 0.46 0.34 0.29 0.28 0.29 0.29 0.25 0.19 0.10 0.06 0.04 0.02 0.01 0.01 0.01 0.01 0.00 0.00 0.00 0.00 0.00 0.00 0.00 0.00 0.00 0.00 0.00 0.00 0.00 0.00 0.00
0.00 0.00 0.00 0.00 0.00 0.02 0.03 0.04 0.06 0.04 0.03 0.02 0.02 0.01 0.01 0.03 0.06 0.15 0.24 0.30 0.27 0.24 0.20 0.20 0.18 0.16 0.10 0.06 0.03 0.02 0.01 0.01 0.01 0.00 0.00 0.00 0.00 0.00 0.00 0.00 0.00 0.00 0.00 0.00 0.00 0.00 0.00 0.00 0.00
0.00 0.00 0.00 0.00 0.00 0.02 0.05 0.04 0.06 0.05 0.04 0.03 0.02 0.02 0.01 0.02 0.03 0.06 0.11 0.19 0.25 0.28 0.22 0.19 0.16 0.14 0.10 0.05 0.03 0.02 0.01 0.01 0.01 0.00 0.00 0.00 0.00 0.00 0.00 0.00 0.00 0.00 0.00 0.00 0.00 0.00 0.00 0.00 0.00
0.00 0.00 0.00 0.00 0.02 0.06 0.09 0.10 0.09 0.07 0.06 0.04 0.02 0.02 0.02 0.02 0.04 0.07 0.09 0.11 0.18 0.24 0.22 0.18 0.15 0.16 0.12 0.05 0.02 0.03 0.02 0.01 0.00 0.00 0.00 0.00 0.00 0.00 0.00 0.00 0.00 0.00 0.00 0.00 0.00 0.00 0.00 0.00 0.00
0.00 0.00 0.00 0.01 0.05 0.11 0.14 0.14 0.18 0.15 0.07 0.03 0.03 0.01 0.02 0.03 0.05 0.11 0.13 0.12 0.15 0.22 0.18 0.16 0.14 0.13 0.11 0.06 0.03 0.02 0.02 0.01 0.00 0.00 0.00 0.00 0.00 0.00 0.00 0.00 0.00 0.00 0.00 0.00 0.00 0.00 0.00 0.00 0.00
0.00 0.00 0.00 0.01 0.04 0.10 0.12 0.16 0.22 0.14 0.05 0.03 0.02 0.01 0.02 0.03 0.05 0.07 0.07 0.06 0.08 0.14 0.13 0.12 0.12 0.10 0.07 0.05 0.04 0.03 0.01 0.01 0.01 0.00 0.00 0.00 0.00 0.00 0.00 0.00 0.00 0.00 0.00 0.00 0.00 0.00 0.00 0.00 0.00
0.01 0.00 0.01 0.02 0.03 0.07 0.12 0.21 0.21 0.09 0.03 0.03 0.02 0.01 0.02 0.03 0.03 0.02 0.03 0.02 0.04 0.09 0.10 0.09 0.11 0.08 0.05 0.03 0.03 0.03 0.02 0.01 0.00 0.00 0.00 0.00 0.00 0.00 0.00 0.00 0.00 0.00 0.00 0.00 0.00 0.00 0.00 0.00 0.00
0.01 0.01 0.01 0.01 0.01 0.06 0.12 0.14 0.11 0.05 0.02 0.04 0.03 0.02 0.01 0.01 0.01 0.01 0.02 0.01 0.02 0.03 0.04 0.04 0.06 0.06 0.04 0.02 0.02 0.02 0.01 0.01 0.01 0.00 0.00 0.00 0.00 0.00 0.00 0.00 0.00 0.00 0.00 0.00 0.00 0.00 0.00 0.00 0.00
0.02 0.01 0.01 0.01 0.02 0.05 0.09 0.13 0.10 0.07 0.03 0.04 0.04 0.02 0.01 0.01 0.01 0.01 0.01 0.01 0.01 0.01 0.02 0.02 0.02 0.02 0.02 0.01 0.01 0.01 0.01 0.01 0.01 0.00 0.00 0.00 0.00 0.00 0.00 0.00 0.00 0.00 0.00 0.00 0.00 0.00 0.00 0.00 0.00
0.02 0.02 0.02 0.02 0.02 0.05 0.09 0.10 0.08 0.08 0.07 0.08 0.05 0.02 0.01 0.01 0.01 0.01 0.00 0.00 0.01 0.01 0.01 0.01 0.01 0.01 0.01 0.01 0.01 0.01 0.01 0.01 0.01 0.01 0.01 0.00 0.00 0.00 0.00 0.00 0.00 0.00 0.00 0.00 0.00 0.00 0.00 0.00 0.00
0.02 0.03 0.03 0.03 0.03 0.04 0.05 0.06 0.06 0.06 0.09 0.16 0.09 0.03 0.02 0.03 0.03 0.03 0.02 0.01 0.00 0.01 0.01 0.00 0.01 0.01 0.01 0.01 0.01 0.01 0.01 0.02 0.02 0.02 0.01 0.01 0.01 0.01 0.01 0.00 0.00 0.00 0.00 0.00 0.00 0.00 0.00 0.00 0.00
MSLP
1010.80 1011.82 1012.95 1014.00 1014.80 1015.23 1015.24 1014.87 1014.24 1013.51 1012.85 1012.40 1012.21 1012.29 1012.55 1012.88 1013.16 1013.30 1013.25 1013.04 1012.74 1012.46 1012.30 1012.32 1012.56 1012.97 1013.47 1013.97 1014.39 1014.67 1014.81 1014.84 1014.81 1014.80 1014.86 1015.01 1015.24 1015.52 1015.79 1016.00 1016.12 1016.15 1016.11 1016.04 1015.98 1015.97 1016.01 1016.12 1016.25
1011.30 1012.44 1013.56 1014.49 1015.07 1015.21 1014.91 1014.26 1013.41 1012.54 1011.82 1011.37 1011.23 1011.37 1011.69 1012.07 1012.38 1012.54 1012.53 1012.37 1012.16 1011.99 1011.94 1012.08 1012.42 1012.90 1013.45 1013.97 1014.39 1014.67 1014.81 1014.86 1014.86 1014.89 1014.98 1015.15 1015.39 1015.64 1015.87 1016.03 1016.11 1016.11 1016.07 1016.02 1015.99 1016.02 1016.11 1016.25 1016.43
1011.90 1013.07 1014.11 1014.84 1015.14 1014.97 1014.38 1013.50 1012.50 1011.57 1010.87 1010.49 1010.45 1010.68 1011.08 1011.50 1011.83 1012.00 1012.00 1011.88 1011.73 1011.65 1011.70 1011.94 1012.36 1012.89 1013.45 1013.97 1014.38 1014.65 1014.79 1014.85 1014.89 1014.95 1015.07 1015.25 1015.48 1015.70 1015.89 1016.00 1016.05 1016.04 1016.00 1015.98 1015.99 1016.07 1016.21 1016.39 1016.58
1012.54 1013.65 1014.53 1015.00 1015.01 1014.55 1013.72 1012.68 1011.62 1010.72 1010.12 1009.89 1009.98 1010.32 1010.78 1011.23 1011.56 1011.72 1011.71 1011.62 1011.52 1011.50 1011.64 1011.95 1012.42 1012.97 1013.53 1014.02 1014.40 1014.64 1014.78 1014.85 1014.90 1014.99 1015.13 1015.32 1015.53 1015.73 1015.88 1015.97 1015.99 1015.98 1015.96 1015.96 1016.03 1016.15 1016.32 1016.52 1016.73
1013.13 1014.10 1014.74 1014.93 1014.65 1013.95 1012.96 1011.86 1010.83 1010.06 1009.64 1009.58 1009.84 1010.29 1010.80 1011.25 1011.55 1011.68 1011.66 1011.57 1011.51 1011.55 1011.76 1012.13 1012.62 1013.17 1013.70 1014.14 1014.46 1014.67 1014.78 1014.84 1014.91 1015.03 1015.19 1015.39 1015.59 1015.77 1015.89 1015.95 1015.96 1015.95 1015.96 1016.01 1016.11 1016.27 1016.47 1016.68 1016.89
1013.56 1014.32 1014.69 1014.60 1014.07 1013.19 1012.13 1011.06 1010.17 1009.60 1009.40 1009.54 1009.95 1010.49 1011.03 1011.45 1011.71 1011.78 1011.74 1011.67 1011.65 1011.76 1012.03 1012.44 1012.95 1013.48 1013.96 1014.33 1014.59 1014.73 1014.81 1014.86 1014.95 1015.08 1015.26 1015.47 1015.67 1015.83 1015.93 1015.98 1015.98 1015.99 1016.02 1016.10 1016.24 1016.43 1016.65 1016.86 1017.04
1013.76 1014.26 1014.34 1013.99 1013.27 1012.30 1011.25 1010.31 1009.63 1009.29 1009.33 1009.66 1010.19 1010.78 1011.31 1011.68 1011.87 1011.90 1011.85 1011.80 1011.85 1012.03 1012.37 1012.83 1013.35 1013.85 1014.27 1014.57 1014.75 1014.83 1014.87 1014.92 1015.01 1015.16 1015.35 1015.57 1015.77 1015.92 1016.00 1016.04 1016.04 1016.06 1016.11 1016.23 1016.40 1016.61 1016.83 1017.04 1017.20
1013.70 1013.92 1013.73 1013.16 1012.31 1011.32 1010.37 1009.61 1009.16 1009.07 1009.32 1009.80 1010.41 1011.00 1011.48 1011.78 1011.90 1011.90 1011.86 1011.86 1011.99 1012.27 1012.69 1013.21 1013.74 1014.22 1014.58 1014.81 1014.92 1014.96 1014.96 1015.00 1015.09 1015.26 1015.47 1015.69 1015.88 1016.02 1016.09 1016.11 1016.11 1016.13 1016.20 1016.34 1016.54 1016.77 1017.00 1017.20 1017.35
1013.39 1013.35 1012.93 1012.20 1011.29 1010.34 1009.53 1008.98 1008.76 1008.88 1009.29 1009.86 1010.49 1011.03 1011.43 1011.65 1011.71 1011.69 1011.69 1011.78 1012.01 1012.40 1012.92 1013.50 1014.06 1014.52 1014.85 1015.02 1015.08 1015.07 1015.06 1015.10 1015.21 1015.38 1015.60 1015.82 1016.00 1016.11 1016.16 1016.16 1016.15 1016.17 1016.26 1016.42 1016.64 1016.89 1017.14 1017.34 1017.48
1012.90 1012.64 1012.04 1011.22 1010.31 1009.47 1008.82 1008.46 1008.43 1008.71 1009.21 1009.80 1010.37 1010.83 1011.13 1011.26 1011.28 1011.28 1011.34 1011.53 1011.89 1012.41 1013.03 1013.68 1014.26 1014.71 1015.01 1015.16 1015.19 1015.17 1015.16 1015.20 1015.33 1015.51 1015.73 1015.94 1016.10 1016.18 1016.20 1016.17 1016.15 1016.17 1016.26 1016.44 1016.68 1016.96 1017.22 1017.44 1017.60
1012.34 1011.92 1011.22 1010.37 1009.52 1008.79 1008.31 1008.12 1008.23 1008.59 1009.09 1009.63 1010.10 1010.44 1010.62 1010.68 1010.69 1010.72 1010.87 1011.18 1011.67 1012.31 1013.02 1013.72 1014.32 1014.78 1015.07 1015.20 1015.24 1015.23 1015.23 1015.30 1015.45 1015.64 1015.86 1016.05 1016.17 1016.22 1016.20 1016.15 1016.11 1016.13 1016.23 1016.42 1016.68 1016.98 1017.28 1017.52 1017.70
1011.83 1011.31 1010.58 1009.77 1009.01 1008.42 1008.08 1008.01 1008.18 1008.55 1008.99 1009.41 1009.75 1009.95 1010.03 1010.04 1010.05 1010.15 1010.40 1010.83 1011.43 1012.16 1012.93 1013.66 1014.28 1014.74 1015.03 1015.17 1015.23 1015.25 1015.30 1015.40 1015.57 1015.77 1015.97 1016.13 1016.22 1016.23 1016.18 1016.11 1016.06 1016.08 1016.19 1016.39 1016.68 1017.00 1017.32 1017.59 1017.80
1011.45 1010.90 1010.21 1009.48 1008.85 1008.39 1008.16 1008.16 1008.34 1008.64 1008.96 1009.23 1009.41 1009.49 1009.49 1009.48 1009.53 1009.70 1010.05 1010.58 1011.26 1012.04 1012.83 1013.56 1014.17 1014.62 1014.91 1015.08 1015.18 1015.26 1015.37 1015.51 1015.70 1015.90 1016.08 1016.21 1016.26 1016.24 1016.17 1016.08 1016.03 1016.06 1016.19 1016.41 1016.72 1017.06 1017.40 1017.69 1017.91
1011.28 1010.75 1010.13 1009.53 1009.03 1008.69 1008.55 1008.56 1008.70 1008.88 1009.05 1009.16 1009.19 1009.16 1009.12 1009.12 1009.23 1009.49 1009.93 1010.53 1011.24 1012.02 1012.78 1013.47 1014.03 1014.46 1014.77 1014.98 1015.14 1015.29 1015.46 1015.65 1015.86 1016.05 1016.21 1016.30 1016.32 1016.27 1016.18 1016.10 1016.07 1016.12 1016.27 1016.51 1016.83 1017.19 1017.54 1017.84 1018.07
1011.30 1010.83 1010.31 1009.84 1009.48 1009.25 1009.16 1009.16 1009.21 1009.25 1009.25 1009.20 1009.11 1009.01 1008.96 1009.01 1009.20 1009.55 1010.06 1010.69 1011.40 1012.12 1012.81 1013.41 1013.91 1014.31 1014.63 1014.88 1015.12 1015.35 1015.58 1015.83 1016.05 1016.23 1016.36 1016.41 1016.39 1016.33 1016.25 1016.19 1016.19 1016.28 1016.46 1016.72 1017.05 1017.40 1017.75 1018.04 1018.26
1011.45 1011.04 1010.64 1010.31 1010.08 1009.95 1009.89 1009.85 1009.79 1009.69 1009.53 1009.33 1009.15 1009.02 1008.99 1009.12 1009.40 1009.84 1010.40 1011.03 1011.69 1012.32 1012.90 1013.39 1013.82 1014.18 1014.51 1014.82 1015.13 1015.45 1015.76 1016.04 1016.27 1016.44 1016.53 1016.54 1016.50 1016.43 1016.37 1016.35 1016.39 1016.52 1016.74 1017.02 1017.35 1017.69 1018.02 1018.29 1018.50
1011.64 1011.30 1011.02 1010.84 1010.73 1010.69 1010.64 1010.55 1010.38 1010.12 1009.81 1009.50 1009.24 1009.11 1009.13 1009.35 1009.73 1010.25 1010.85 1011.46 1012.04 1012.56 1013.01 1013.39 1013.73 1014.06 1014.41 1014.78 1015.18 1015.58 1015.96 1016.28 1016.52 1016.66 1016.71 1016.69 1016.62 1016.55 1016.52 1016.54 1016.65 1016.83 1017.08 1017.38 1017.70 1018.02 1018.32 1018.57 1018.76
1011.76 1011.51 1011.37 1011.33 1011.36 1011.39 1011.35 1011.20 1010.91 1010.51 1010.06 1009.63 1009.33 1009.20 1009.29 1009.59 1010.08 1010.67 1011.29 1011.87 1012.37 1012.77 1013.09 1013.36 1013.62 1013.94 1014.31 1014.76 1015.24 1015.73 1016.17 1016.53 1016.76 1016.87 1016.88 1016.82 1016.74 1016.68 1016.67 1016.75 1016.91 1017.14 1017.43 1017.73 1018.05 1018.34 1018.60 1018.83 1019.00
1011.76 1011.62 1011.63 1011.75 1011.92 1012.04 1012.01 1011.80 1011.39 1010.85 1010.25 1009.72 1009.36 1009.24 1009.38 1009.77 1010.34 1010.99 1011.63 1012.18 1012.60 1012.89 1013.09 1013.27 1013.48 1013.79 1014.20 1014.71 1015.29 1015.86 1016.36 1016.74 1016.97 1017.05 1017.02 1016.93 1016.83 1016.78 1016.81 1016.94 1017.15 1017.42 1017.73 1018.04 1018.33 1018.60 1018.83 1019.02 1019.19
1011.61 1011.61 1011.81 1012.13 1012.46 1012.67 1012.66 1012.39 1011.88 1011.18 1010.44 1009.80 1009.37 1009.23 1009.40 1009.85 1010.48 1011.18 1011.82 1012.34 1012.70 1012.90 1013.02 1013.12 1013.30 1013.61 1014.06 1014.64 1015.29 1015.93 1016.48 1016.89 1017.11 1017.17 1017.11 1016.99 1016.89 1016.85 1016.91 1017.08 1017.33 1017.64 1017.96 1018.26 1018.53 1018.76 1018.96 1019.13 1019.30
1011.34 1011.54 1011.98 1012.52 1013.03 1013.35 1013.38 1013.06 1012.43 1011.59 1010.70 1009.92 1009.39 1009.21 1009.38 1009.85 1010.52 1011.25 1011.90 1012.39 1012.70 1012.84 1012.89 1012.94 1013.10 1013.41 1013.90 1014.54 1015.25 1015.94 1016.53 1016.95 1017.17 1017.22 1017.14 1017.01 1016.90 1016.88 1016.96 1017.17 1017.45 1017.78 1018.11 1018.39 1018.63 1018.82 1018.99 1019.15 1019.33
1011.01 1011.47 1012.17 1012.97 1013.69 1014.14 1014.21 1013.86 1013.13 1012.14 1011.09 1010.16 1009.52 1009.27 1009.40 1009.87 1010.54 1011.27 1011.92 1012.40 1012.67 1012.76 1012.77 1012.78 1012.92 1013.23 1013.74 1014.41 1015.15 1015.88 1016.49 1016.93 1017.15 1017.19 1017.11 1016.98 1016.88 1016.88 1016.99 1017.22 1017.53 1017.87 1018.18 1018.45 1018.65 1018.80 1018.93 1019.08 1019.26
1010.70 1011.44 1012.44 1013.51 1014.44 1015.04 1015.17 1014.79 1013.97 1012.85 1011.64 1010.58 1009.82 1009.46 1009.54 1009.97 1010.63 1011.35 1011.99 1012.44 1012.68 1012.74 1012.71 1012.70 1012.80 1013.10 1013.61 1014.28 1015.03 1015.77 1016.39 1016.83 1017.06 1017.11 1017.04 1016.92 1016.85 1016.88 1017.02 1017.27 1017.59 1017.93 1018.23 1018.47 1018.63 1018.75 1018.84 1018.97 1019.15
1010.44 1011.47 1012.77 1014.10 1015.23 1015.96 1016.15 1015.76 1014.88 1013.65 1012.33 1011.14 1010.27 1009.83 1009.83 1010.21 1010.84 1011.53 1012.15 1012.58 1012.80 1012.83 1012.76 1012.71 1012.79 1013.05 1013.52 1014.17 1014.90 1015.62 1016.23 1016.67 1016.90 1016.97 1016.92 1016.85 1016.81 1016.87 1017.04 1017.32 1017.65 1017.98 1018.27 1018.48 1018.61 1018.69 1018.75 1018.85 1019.02
1010.24 1011.53 1013.07 1014.62 1015.92 1016.76 1017.01 1016.63 1015.71 1014.43 1013.03 1011.76 1010.82 1010.30 1010.25 1010.58 1011.17 1011.83 1012.42 1012.82 1013.01 1013.01 1012.91 1012.83 1012.85 1013.07 1013.49 1014.08 1014.76 1015.44 1016.03 1016.45 1016.70 1016.78 1016.77 1016.74 1016.75 1016.85 1017.05 1017.35 1017.70 1018.03 1018.31 1018.50 1018.61 1018.65 1018.69 1018.76 1018.90
1010.07 1011.54 1013.25 1014.93 1016.34 1017.25 1017.54 1017.19 1016.27 1014.99 1013.58 1012.30 1011.33 1010.79 1010.71 1011.01 1011.55 1012.18 1012.73 1013.11 1013.27 1013.25 1013.12 1012.99 1012.97 1013.13 1013.48 1014.00 1014.62 1015.24 1015.79 1016.19 1016.44 1016.55 1016.57 1016.58 1016.63 1016.78 1017.02 1017.34 1017.71 1018.05 1018.33 1018.52 1018.61 1018.64 1018.66 1018.70 1018.82
1009.86 1011.42 1013.18 1014.90 1016.33 1017.26 1017.57 1017.24 1016.38 1015.15 1013.80 1012.58 1011.66 1011.15 1011.08 1011.36 1011.88 1012.47 1012.99 1013.34 1013.47 1013.43 1013.28 1013.12 1013.07 1013.17 1013.46 1013.91 1014.46 1015.02 1015.51 1015.89 1016.13 1016.25 1016.30 1016.35 1016.44 1016.62 1016.90 1017.25 1017.63 1017.99 1018.29 1018.48 1018.59 1018.63 1018.64 1018.66 1018.75
1009.58 1011.09 1012.79 1014.43 1015.79 1016.67 1016.97 1016.68 1015.89 1014.78 1013.57 1012.48 1011.67 1011.25 1011.22 1011.52 1012.03 1012.59 1013.08 1013.39 1013.51 1013.46 1013.30 1013.14 1013.07 1013.15 1013.39 1013.79 1014.27 1014.77 1015.21 1015.55 1015.77 1015.89 1015.96 1016.02 1016.14 1016.35 1016.65 1017.03 1017.43 1017.82 1018.14 1018.36 1018.50 1018.56 1018.58 1018.61 1018.68
1009.20 1010.56 1012.06 1013.52 1014.71 1015.48 1015.74 1015.49 1014.81 1013.86 1012.84 1011.94 1011.31 1011.02 1011.07 1011.41 1011.91 1012.44 1012.89 1013.19 1013.29 1013.25 1013.11 1012.98 1012.92 1013.01 1013.24 1013.60 1014.04 1014.49 1014.88 1015.18 1015.37 1015.47 1015.53 1015.60 1015.73 1015.95 1016.27 1016.66 1017.08 1017.49 1017.84 1018.11 1018.29 1018.39 1018.44 1018.48 1018.55
1008.78 1009.88 1011.10 1012.28 1013.24 1013.85 1014.04 1013.81 1013.26 1012.50 1011.71 1011.05 1010.62 1010.48 1010.63 1011.01 1011.51 1012.02 1012.43 1012.70 1012.81 1012.79 1012.71 1012.63 1012.63 1012.76 1013.02 1013.38 1013.80 1014.21 1014.55 1014.81 1014.96 1015.03 1015.07 1015.13 1015.25 1015.46 1015.77 1016.17 1016.60 1017.03 1017.42 1017.73 1017.96 1018.10 1018.20 1018.27 1018.34
Thickness
5814 5812 5809 5798 5776 5758 5754 5770 5782 5784 5789 5802 5804 5798 5787 5781 5774 5767 5791 5797 5793 5788 5786 5784 5783 5782 5781 5780 5779 5777 5776 5775 5774 5773 5772 5770 5768 5766 5764 5762 5760 5758 5756 5754 5753 5752 5751 5751 5750
5815 5812 5801 5782 5760 5744 5755 5781 5786 5793 5800 5806 5803 5797 5789 5785 5793 5790 5791 5793 5792 5788 5785 5783 5782 5781 5779 5778 5777 5776 5774 5773 5772 5771 5770 5768 5767 5765 5763 5761 5759 5757 5755 5753 5751 5751 5750 5750 5749
5816 5811 5788 5769 5757 5752 5766 5789 5796 5804 5808 5805 5796 5793 5788 5785 5793 5791 5793 5793 5789 5786 5784 5782 5780 5779 5777 5776 5775 5774 5773 5772 5771 5770 5769 5767 5765 5763 5762 5759 5757 5755 5753 5752 5750 5749 5748 5748 5747
5812 5796 5782 5763 5758 5776 5788 5798 5806 5803 5802 5804 5796 5782 5787 5799 5799 5797 5794 5791 5785 5782 5781 5779 5778 5777 5775 5774 5773 5772 5771 5770 5769 5768 5767 5766 5764 5762 5760 5758 5756 5754 5752 5750 5749 5747 5746 5746 5745
5808 5786 5767 5757 5769 5791 5805 5811 5812 5801 5795 5796 5792 5777 5777 5794 5801 5796 5791 5787 5782 5779 5777 5776 5775 5774 5772 5771 5771 5770 5770 5769 5768 5767 5766 5764 5762 5760 5758 5756 5754 5752 5750 5748 5747 5746 5744 5743 5743
5792 5779 5758 5753 5775 5799 5809 5816 5811 5800 5795 5794 5788 5775 5772 5788 5790 5788 5786 5783 5780 5777 5775 5772 5771 5771 5770 5769 5768 5768 5768 5767 5766 5765 5764 5762 5760 5758 5757 5755 5753 5751 5748 5747 5745 5744 5743 5741 5740
5785 5773 5761 5769 5779 5793 5807 5816 5807 5798 5793 5793 5793 5773 5769 5778 5785 5786 5782 5779 5776 5774 5771 5769 5769 5768 5767 5766 5766 5766 5766 5765 5764 5763 5762 5760 5758 5757 5755 5753 5751 5749 5747 5745 5743 5742 5740 5739 5738
5799 5777 5768 5773 5783 5792 5811 5815 5813 5804 5795 5802 5797 5775 5766 5776 5783 5781 5776 5772 5770 5769 5768 5767 5766 5766 5765 5765 5764 5763 5763 5763 5762 5761 5760 5759 5757 5755 5753 5751 5750 5748 5746 5744 5742 5740 5738 5737 5736
5807 5771 5761 5776 5788 5797 5813 5809 5810 5814 5802 5798 5796 5790 5786 5784 5779 5773 5767 5763 5762 5763 5764 5764 5763 5762 5762 5762 5762 5762 5761 5761 5760 5759 5758 5757 5755 5753 5752 5750 5748 5746 5744 5742 5740 5738 5737 5735 5734
5793 5765 5777 5799 5807 5808 5814 5811 5806 5798 5788 5784 5785 5787 5786 5780 5773 5767 5762 5758 5757 5757 5759 5760 5759 5758 5759 5760 5759 5759 5759 5758 5757 5757 5756 5755 5753 5752 5750 5748 5746 5744 5742 5740 5739 5737 5735 5734 5732
5797 5784 5799 5811 5819 5819 5813 5809 5809 5791 5776 5781 5780 5779 5778 5773 5768 5764 5761 5760 5758 5758 5757 5757 5757 5756 5756 5757 5756 5756 5756 5755 5754 5755 5754 5752 5751 5750 5748 5747 5745 5743 5741 5739 5737 5736 5734 5732 5731
5803 5806 5813 5816 5822 5819 5812 5808 5801 5794 5790 5796 5793 5786 5777 5769 5764 5761 5758 5756 5755 5754 5754 5754 5754 5753 5754 5754 5755 5754 5754 5752 5752 5752 5752 5751 5749 5748 5746 5745 5743 5741 5740 5738 5736 5735 5733 5731 5730
5804 5808 5818 5821 5820 5818 5812 5804 5797 5793 5799 5797 5791 5783 5774 5768 5763 5760 5758 5755 5753 5750 5751 5752 5753 5752 5752 5752 5752 5752 5751 5750 5750 5750 5749 5749 5747 5745 5744 5743 5742 5740 5738 5736 5735 5734 5732 5730 5729
5808 5811 5815 5819 5817 5816 5805 5798 5792 5789 5794 5788 5782 5774 5770 5764 5760 5756 5752 5750 5749 5747 5747 5749 5749 5748 5749 5749 5750 5749 5749 5748 5748 5747 5747 5746 5745 5744 5742 5741 5740 5739 5737 5736 5734 5733 5731 5729 5728
5812 5801 5804 5812 5813 5811 5803 5783 5786 5793 5790 5780 5774 5769 5763 5759 5756 5752 5750 5748 5747 5746 5745 5745 5746 5746 5746 5747 5748 5747 5747 5746 5745 5744 5744 5744 5743 5742 5741 5739 5738 5737 5736 5735 5733 5732 5730 5729 5727
5798 5786 5777 5800 5810 5809 5792 5767 5785 5791 5784 5773 5769 5765 5758 5754 5751 5749 5748 5746 5745 5744 5741 5741 5744 5742 5744 5745 5746 5745 5744 5743 5742 5741 5741 5741 5741 5741 5739 5737 5736 5736 5735 5734 5732 5729 5727 5726 5725
5774 5763 5770 5789 5809 5804 5788 5771 5784 5787 5781 5770 5766 5760 5754 5747 5744 5744 5744 5743 5742 5741 5737 5738 5740 5740 5741 5742 5743 5742 5741 5740 5739 5739 5739 5739 5739 5738 5737 5735 5735 5735 5734 5732 5731 5727 5726 5723 5723
5759 5764 5772 5780 5800 5796 5781 5774 5781 5784 5779 5769 5763 5756 5749 5743 5741 5742 5741 5742 5740 5738 5736 5736 5736 5738 5738 5739 5739 5737 5736 5735 5736 5736 5737 5736 5736 5736 5735 5734 5733 5733 5732 5729 5728 5726 5725 5723 5722
5778 5774 5773 5785 5802 5788 5776 5773 5776 5779 5774 5766 5760 5754 5748 5743 5742 5742 5739 5740 5737 5735 5732 5733 5733 5734 5735 5736 5735 5732 5730 5731 5732 5734 5734 5734 5734 5734 5733 5732 5731 5731 5729 5727 5727 5725 5723 5722 5722
5784 5775 5776 5784 5795 5783 5771 5769 5773 5774 5770 5767 5761 5755 5749 5742 5739 5737 5736 5734 5734 5732 5731 5731 5730 5732 5734 5735 5735 5733 5731 5729 5731 5732 5731 5732 5732 5732 5732 5731 5730 5729 5727 5726 5725 5724 5721 5721 5721
5785 5781 5781 5778 5780 5775 5766 5755 5758 5764 5767 5766 5765 5759 5752 5745 5739 5736 5733 5731 5730 5729 5729 5730 5729 5730 5731 5733 5732 5730 5728 5726 5726 5726 5727 5729 5730 5730 5730 5729 5729 5728 5726 5724 5723 5723 5721 5717 5718
5774 5796 5795 5784 5763 5742 5749 5727 5743 5751 5753 5758 5756 5753 5750 5745 5741 5737 5734 5731 5729 5729 5729 5729 5728 5728 5729 5730 5730 5727 5724 5722 5723 5725 5726 5727 5728 5729 5729 5728 5727 5726 5725 5723 5723 5722 5721 5719 5715
5787 5800 5791 5777 5755 5738 5736 5724 5730 5745 5743 5749 5753 5752 5749 5746 5743 5739 5736 5733 5731 5730 5728 5728 5726 5726 5727 5729 5729 5727 5725 5725 5724 5724 5724 5725 5726 5727 5727 5727 5726 5725 5724 5723 5722 5721 5719 5718 5715
5801 5789 5773 5756 5740 5720 5724 5719 5721 5736 5743 5748 5752 5753 5750 5747 5744 5740 5737 5735 5732 5730 5727 5725 5725 5724 5726 5727 5728 5727 5725 5724 5722 5721 5721 5722 5723 5724 5725 5725 5724 5723 5722 5721 5720 5719 5718 5716 5715
5791 5761 5733 5725 5713 5711 5723 5719 5725 5749 5757 5755 5753 5753 5752 5749 5744 5740 5736 5734 5731 5729 5726 5724 5723 5722 5724 5726 5727 5727 5726 5725 5723 5722 5721 5720 5720 5722 5723 5724 5722 5722 5721 5720 5719 5718 5716 5715 5713
5781 5765 5731 5715 5709 5707 5716 5715 5737 5760 5764 5763 5761 5759 5755 5750 5746 5743 5740 5737 5734 5730 5728 5726 5724 5724 5725 5726 5726 5726 5726 5725 5724 5724 5723 5722 5722 5723 5724 5723 5722 5721 5720 5719 5717 5716 5714 5713 5712
5777 5768 5764 5736 5724 5704 5708 5722 5743 5760 5759 5760 5759 5756 5753 5751 5748 5746 5743 5741 5737 5734 5730 5729 5727 5725 5725 5725 5725 5725 5725 5724 5724 5724 5724 5723 5723 5724 5723 5722 5720 5719 5718 5717 5715 5714 5712 5711 5710
5790 5777 5753 5734 5713 5702 5706 5713 5723 5744 5749 5754 5754 5753 5753 5752 5750 5748 5746 5744 5742 5739 5735 5732 5730 5727 5726 5726 5726 5726 5725 5725 5725 5724 5723 5723 5723 5724 5722 5721 5719 5717 5716 5714 5713 5711 5710 5708 5706
5778 5768 5753 5735 5727 5705 5694 5713 5752 5752 5756 5755 5754 5757 5756 5755 5753 5751 5748 5746 5743 5740 5736 5733 5730 5728 5727 5726 5726 5726 5725 5725 5724 5723 5723 5723 5722 5721 5720 5719 5717 5715 5713 5711 5709 5708 5706 5704 5703
5781 5768 5754 5732 5725 5720 5709 5721 5767 5764 5763 5761 5759 5760 5759 5759 5757 5753 5751 5748 5744 5740 5737 5734 5732 5730 5729 5728 5726 5725 5725 5724 5723 5722 5722 5722 5720 5719 5718 5717 5714 5712 5710 5709 5707 5705 5703 5701 5699